Tracking 27380 objects as of 5-Jun-2023
HD Live streaming from Space Station
objects crossing your sky now

DELTA 1 DEB

Track DELTA 1 DEB now!
10-day predictions


NORAD ID: 7134
Int'l Code: 1973-086CY
Perigee: 1,447.4 km
Apogee: 1,475.5 km
Inclination: 101.8 °
Period: 115.0 minutes
Semi major axis: 7832 km
RCS: 0.1006 m2 (medium)
Launch date: November 6, 1973
Source: United States (US)
Launch site: AIR FORCE WESTERN TEST RANGE (AFWTR)

Note: This is SATELLITE DEBRIS
Your satellite tracking list
Your tracking list is empty




NASA's NSSDC Master Catalog

Two Line Element Set (TLE):
1  7134U 73086CY  23156.10056877  .00000267  00000-0  19881-2 0  9994
2  7134 101.8369 279.6636 0017985 219.4070 314.3872 12.52437083261481
Source of the keplerian elements: AFSPC